Regional Weather Roundup
Issued by NWS

Home | Current Version | Previous Version | Graphics & Text | Print | Product List | Glossary Off
Versions: 1 2 3 4 5 6 7 8 9 10 11 12 13 14 15 16 17 18 19 20 21 22 23 24 25 26 27 28 29 30 31 32 33 34 35 36 37 38 39 40 41 42 43 44 45 46 47 48 49 50

000
ASUS43 KLSX 300507
RWRMO

WEATHER SUMMARY FOR MISSOURI
NATIONAL WEATHER SERVICE SPRINGFIELD MO
1200 AM CDT SAT AUG 30 2014

NOTE: "FAIR" INDICATES FEW OR NO CLOUDS BELOW 12,000 FEET WITH NO
       SIGNIFICANT WEATHER AND/OR OBSTRUCTIONS TO VISIBILITY.
       CURRENT SKY AND/OR WEATHER CONDITIONS ARE NOT AVAILABLE FOR
       CHILLICOTHE AND FARMINGTON.

MOZ001>031-035>038-043-044-053-054-300600-
...NORTHERN AND WESTERN MISSOURI...

CITY           SKY/WX    TMP DP  RH WIND       PRES   REMARKS
KANSAS CTY INT CLOUDY    71  67  87 S10       29.86R
KANSAS C DTWN  CLOUDY    74  69  85 NW3       29.86R
LEE`S SUMMIT   PTCLDY    72  67  84 SW7       29.88R
ST JOSEPH      MOCLDY    70  67  90 SW6       29.85R
CHILLICOTHE      N/A     72  64  76 S9        29.86R
KIRKSVILLE     MOCLDY    71  68  90 S6        29.86R

$$
MOZ066>068-077>081-088>096-101>105-300600-
...SOUTHWEST MISSOURI...

CITY           SKY/WX    TMP DP  RH WIND       PRES   REMARKS
SPRINGFIELD    PTCLDY    73  68  84 S10       29.95R
JOPLIN         CLEAR     75  66  73 S9        29.93R

$$
MOZ032>034-039>042-045>050-055>058-069>072-300600-
...CENTRAL MISSOURI...

CITY           SKY/WX    TMP DP  RH WIND       PRES   REMARKS
COLUMBIA       CLEAR     72  70  93 S9        29.90S
JEFFERSON CITY CLEAR     73  69  87 SE5       29.89S
ROLLA          PTCLDY    71  67  87 S9        29.94R
SEDALIA        CLEAR     74  68  81 S9        29.89S
WHITEMAN AFB   PTCLDY    72  68  86 S9        29.87S
OSAGE BEACH    CLEAR     72  66  83 S8        29.92S

$$
MOZ051-052-059>065-300600-
...EAST CENTRAL MISSOURI...

CITY           SKY/WX    TMP DP  RH WIND       PRES   REMARKS
ST LOUIS INTL  CLOUDY    79  69  71 S9G18     29.92S
SPIRIT OF STL  CLOUDY    78  68  71 SW6       29.90S
ST CHARLES     CLOUDY    76  71  85 S7        29.90S

$$
MOZ072>076-082>087-097>100-106>115-300600-
...SOUTH CENTRAL AND SOUTHEAST MISSOURI...

CITY           SKY/WX    TMP DP  RH WIND       PRES   REMARKS
CAPE GIRARDEAU LGT RAIN  73  70  90 S6        29.98F
FARMINGTON     CLOUDY    72  68  88 S10       29.99F
POPLAR BLUFF   CLOUDY    72  69  90 SE3       29.97F
WEST PLAINS    LGT RAIN  72  68  87 S6        30.00S

$$



USA.gov is the U.S. government's official web portal to all federal, state and local government web resources and services.